Time,TemperatureF,DewpointF,PressureIn,WindDirection,WindDirectionDegrees,WindSpeedMPH,WindSpeedGustMPH,Humidity,HourlyPrecipIn,Conditions,Clouds,dailyrainin,SoftwareType,DateUTC
2013-03-23 00:02:00,26.3,16.1,29.76,WSW,256,7.0,10.0,65,0.00,CLR,,0.00,WeatherDisplay:10.37,2013-03-23 08:02:00,
2013-03-23 00:17:00,23.7,16.3,29.77,WSW,252,8.0,16.0,73,0.00,CLR,,0.00,WeatherDisplay:10.37,2013-03-23 08:17:00,
2013-03-23 00:32:00,21.9,17.5,29.78,West,259,8.0,12.0,83,0.00,CLR,,0.00,WeatherDisplay:10.37,2013-03-23 08:32:00,
2013-03-23 00:47:00,21.1,17.5,29.78,WSW,254,9.0,13.0,86,0.00,CLR,,0.00,WeatherDisplay:10.37,2013-03-23 08:47:00,
2013-03-23 01:02:00,20.1,17.1,29.79,WSW,252,3.0,14.0,88,0.00,CLR,,0.00,WeatherDisplay:10.37,2013-03-23 09:02:00,
2013-03-23 01:17:00,19.3,16.9,29.79,WSW,257,7.0,13.0,90,0.00,CLR,,0.00,WeatherDisplay:10.37,2013-03-23 09:17:00,
2013-03-23 01:32:00,17.8,15.4,29.80,WSW,256,6.0,18.0,90,0.00,CLR,,0.00,WeatherDisplay:10.37,2013-03-23 09:32:00,
2013-03-23 01:47:00,16.7,13.7,29.81,WSW,256,1.0,13.0,88,0.00,CLR,,0.00,WeatherDisplay:10.37,2013-03-23 09:47:00,
2013-03-23 02:02:00,15.9,13.5,29.82,West,267,6.0,15.0,90,0.00,CLR,,0.00,WeatherDisplay:10.37,2013-03-23 10:02:00,
2013-03-23 02:17:00,15.0,12.6,29.83,West,261,8.0,16.0,90,0.00,CLR,,0.00,WeatherDisplay:10.37,2013-03-23 10:17:00,
2013-03-23 02:32:00,14.2,12.0,29.84,WSW,256,3.0,14.0,91,0.00,CLR,,0.00,WeatherDisplay:10.37,2013-03-23 10:32:00,
2013-03-23 02:47:00,12.9,10.5,29.85,WSW,243,1.0,12.0,90,0.00,CLR,,0.00,WeatherDisplay:10.37,2013-03-23 10:47:00,
2013-03-23 03:02:00,11.8,9.6,29.86,WSW,248,5.0,13.0,91,0.00,CLR,,0.00,WeatherDisplay:10.37,2013-03-23 11:02:00,
2013-03-23 03:17:00,11.2,9.1,29.87,SW,229,0.0,9.0,91,0.00,CLR,,0.00,WeatherDisplay:10.37,2013-03-23 11:17:00,
2013-03-23 03:32:00,10.6,8.5,29.87,WSW,238,0.0,6.0,91,0.00,CLR,,0.00,WeatherDisplay:10.37,2013-03-23 11:32:00,
2013-03-23 03:47:00,10.0,7.9,29.88,WSW,254,0.0,8.0,91,0.00,CLR,,0.00,WeatherDisplay:10.37,2013-03-23 11:47:00,
2013-03-23 04:02:00,9.3,7.5,29.89,WSW,244,0.0,7.0,92,0.00,CLR,,0.00,WeatherDisplay:10.37,2013-03-23 12:02:00,
2013-03-23 04:17:00,8.6,6.5,29.90,West,261,0.0,7.0,91,0.00,CLR,,0.00,WeatherDisplay:10.37,2013-03-23 12:17:00,
2013-03-23 04:32:00,8.2,6.1,29.91,SW,220,0.0,6.0,91,0.00,CLR,,0.00,WeatherDisplay:10.37,2013-03-23 12:32:00,
2013-03-23 04:47:00,7.4,5.6,29.92,West,265,2.0,11.0,92,0.00,CLR,,0.00,WeatherDisplay:10.37,2013-03-23 12:47:00,
2013-03-23 05:02:00,7.0,5.2,29.93,WNW,291,0.0,9.0,92,0.00,CLR,,0.00,WeatherDisplay:10.37,2013-03-23 13:02:00,
2013-03-23 05:17:00,6.3,4.5,29.94,WSW,252,0.0,10.0,92,0.00,CLR,,0.00,WeatherDisplay:10.37,2013-03-23 13:17:00,
2013-03-23 05:32:00,5.6,3.8,29.95,WSW,244,1.0,8.0,92,0.00,CLR,,0.00,WeatherDisplay:10.37,2013-03-23 13:32:00,
2013-03-23 05:47:00,4.9,2.6,29.96,West,261,0.0,8.0,90,0.00,CLR,,0.00,WeatherDisplay:10.37,2013-03-23 13:47:00,
2013-03-23 06:02:00,4.3,2.0,29.96,WSW,248,2.0,7.0,90,0.00,CLR,,0.00,WeatherDisplay:10.37,2013-03-23 14:02:00,
2013-03-23 06:17:00,3.3,1.2,29.97,WSW,253,5.0,10.0,91,0.00,CLR,,0.00,WeatherDisplay:10.37,2013-03-23 14:17:00,
2013-03-23 06:32:00,2.8,0.5,29.99,West,268,1.0,10.0,90,0.00,CLR,,0.00,WeatherDisplay:10.37,2013-03-23 14:32:00,
2013-03-23 06:47:00,2.4,0.2,29.99,West,260,0.0,8.0,90,0.00,CLR,,0.00,WeatherDisplay:10.37,2013-03-23 14:47:00,
2013-03-23 07:02:00,1.8,-0.5,30.00,WSW,257,3.0,15.0,90,0.00,CLR,,0.00,WeatherDisplay:10.37,2013-03-23 15:02:00,
2013-03-23 07:17:00,1.0,-1.2,30.01,West,259,2.0,14.0,90,0.00,CLR,,0.00,WeatherDisplay:10.37,2013-03-23 15:17:00,
2013-03-23 07:32:00,0.2,-2.5,30.02,West,264,0.0,13.0,88,0.00,CLR,,0.00,WeatherDisplay:10.37,2013-03-23 15:32:00,
2013-03-23 07:47:00,-0.4,-3.1,30.02,West,262,0.0,10.0,88,0.00,CLR,,0.00,WeatherDisplay:10.37,2013-03-23 15:47:00,
2013-03-23 08:02:00,-0.9,-3.8,30.03,WSW,249,1.0,7.0,87,0.00,CLR,,0.00,WeatherDisplay:10.37,2013-03-23 16:02:00,
2013-03-23 08:17:00,-1.2,-4.3,30.05,WSW,250,0.0,6.0,86,0.00,CLR,,0.00,WeatherDisplay:10.37,2013-03-23 16:17:00,
2013-03-23 08:32:00,-1.3,-4.4,30.05,WSW,250,0.0,0.0,86,0.00,CLR,,0.00,WeatherDisplay:10.37,2013-03-23 16:32:00,
2013-03-23 08:47:00,-1.9,-5.0,30.06,WSW,250,0.0,0.0,86,0.00,CLR,,0.00,WeatherDisplay:10.37,2013-03-23 16:47:00,
2013-03-23 09:02:00,-2.3,-5.7,30.07,WSW,250,0.0,0.0,85,0.00,CLR,,0.00,WeatherDisplay:10.37,2013-03-23 17:02:00,
2013-03-23 09:17:00,-2.3,-5.7,30.07,WSW,250,0.0,0.0,85,0.00,CLR,,0.00,WeatherDisplay:10.37,2013-03-23 17:17:00,
2013-03-23 09:32:00,-2.3,-5.7,30.08,WSW,250,0.0,0.0,85,0.00,CLR,,0.00,WeatherDisplay:10.37,2013-03-23 17:32:00,
2013-03-23 09:47:00,-2.4,-5.8,30.09,West,268,0.0,3.0,85,0.00,CLR,,0.00,WeatherDisplay:10.37,2013-03-23 17:47:00,
2013-03-23 10:02:00,-2.6,-6.2,30.09,WNW,296,0.0,3.0,84,0.00,CLR,,0.00,WeatherDisplay:10.37,2013-03-23 18:02:00,
2013-03-23 10:17:00,-2.7,-6.6,30.10,West,269,0.0,4.0,83,0.00,CLR,,0.00,WeatherDisplay:10.37,2013-03-23 18:17:00,
2013-03-23 10:32:00,-2.7,-6.3,30.10,West,274,0.0,0.0,84,0.00,CLR,,0.00,WeatherDisplay:10.37,2013-03-23 18:32:00,
2013-03-23 10:47:00,-2.8,-6.7,30.10,West,274,0.0,0.0,83,0.00,CLR,,0.00,WeatherDisplay:10.37,2013-03-23 18:47:00,
2013-03-23 11:02:00,-3.0,-7.2,30.11,WSW,247,0.0,6.0,82,0.00,CLR,,0.00,WeatherDisplay:10.37,2013-03-23 19:02:00,
2013-03-23 11:17:00,-2.8,-6.9,30.11,WSW,240,0.0,0.0,82,0.00,CLR,,0.00,WeatherDisplay:10.37,2013-03-23 19:17:00,
2013-03-23 11:32:00,-2.7,-7.3,30.11,WSW,238,0.0,6.0,80,0.00,CLR,,0.00,WeatherDisplay:10.37,2013-03-23 19:32:00,
2013-03-23 11:47:00,-2.4,-6.5,30.11,WSW,245,0.0,6.0,82,0.00,CLR,,0.00,WeatherDisplay:10.37,2013-03-23 19:47:00,
2013-03-23 12:02:00,-2.0,-6.4,30.12,SSW,208,0.0,8.0,81,0.00,CLR,,0.00,WeatherDisplay:10.37,2013-03-23 20:02:00,
2013-03-23 12:17:00,-1.5,-5.7,30.12,SSW,208,0.0,0.0,82,0.00,CLR,,0.00,WeatherDisplay:10.37,2013-03-23 20:17:00,
2013-03-23 12:32:00,-1.5,-5.9,30.12,SSW,197,0.0,2.0,81,0.00,CLR,,0.00,WeatherDisplay:10.37,2013-03-23 20:32:00,
2013-03-23 12:47:00,-0.6,-5.3,30.12,SSE,164,0.0,4.0,80,0.00,CLR,,0.00,WeatherDisplay:10.37,2013-03-23 20:47:00,
2013-03-23 13:02:00,-0.2,-4.9,30.12,SSE,152,0.0,0.0,80,0.00,CLR,,0.00,WeatherDisplay:10.37,2013-03-23 21:02:00,
2013-03-23 13:17:00,-0.3,-5.5,30.12,SSE,156,0.0,11.0,78,0.00,CLR,,0.00,WeatherDisplay:10.37,2013-03-23 21:17:00,
2013-03-23 13:32:00,0.0,-5.2,30.13,SSE,153,0.0,2.0,78,0.00,CLR,,0.00,WeatherDisplay:10.37,2013-03-23 21:32:00,
2013-03-23 13:47:00,0.3,-4.7,30.13,SE,133,0.0,1.0,79,0.00,CLR,,0.00,WeatherDisplay:10.37,2013-03-23 21:47:00,
2013-03-23 14:02:00,0.7,-4.5,30.13,SE,124,0.0,4.0,78,0.00,CLR,,0.00,WeatherDisplay:10.37,2013-03-23 22:02:00,
2013-03-23 14:17:00,1.1,-4.2,30.13,SSE,164,0.0,4.0,78,0.00,CLR,,0.00,WeatherDisplay:10.37,2013-03-23 22:17:00,
2013-03-23 14:32:00,1.3,-4.0,30.12,SSE,164,0.0,0.0,78,0.00,CLR,,0.00,WeatherDisplay:10.37,2013-03-23 22:32:00,
2013-03-23 14:47:00,2.1,-3.2,30.12,SSE,167,5.0,10.0,78,0.00,CLR,,0.00,WeatherDisplay:10.37,2013-03-23 22:47:00,
2013-03-23 15:02:00,2.4,-3.1,30.12,SSE,149,5.0,12.0,77,0.00,CLR,,0.00,WeatherDisplay:10.37,2013-03-23 23:02:00,
2013-03-23 15:17:00,2.6,-3.0,30.12,SSE,148,6.0,11.0,77,0.00,CLR,,0.00,WeatherDisplay:10.37,2013-03-23 23:17:00,
2013-03-23 15:47:00,4.1,-2.7,30.12,SE,146,5.0,10.0,73,0.00,CLR,,0.00,WeatherDisplay:10.37,2013-03-23 23:47:00,
2013-03-23 16:02:00,4.9,-1.8,30.12,SE,136,2.0,9.0,73,0.00,CLR,,0.00,WeatherDisplay:10.37,2013-03-24 00:02:00,
2013-03-23 16:17:00,5.3,-1.5,30.12,SSE,148,3.0,10.0,73,0.00,CLR,,0.00,WeatherDisplay:10.37,2013-03-24 00:17:00,
2013-03-23 16:32:00,4.7,-2.9,30.11,South,179,6.0,12.0,70,0.00,CLR,,0.00,WeatherDisplay:10.37,2013-03-24 00:32:00,
2013-03-23 16:47:00,5.0,-3.0,30.11,South,170,5.0,11.0,69,0.00,CLR,,0.00,WeatherDisplay:10.37,2013-03-24 00:47:00,
2013-03-23 17:02:00,5.4,-2.9,30.11,SSE,156,7.0,14.0,68,0.00,CLR,,0.00,WeatherDisplay:10.37,2013-03-24 01:02:00,
2013-03-23 17:17:00,6.1,-2.2,30.11,SSE,168,6.0,13.0,68,0.00,CLR,,0.00,WeatherDisplay:10.37,2013-03-24 01:17:00,
2013-03-23 17:32:00,6.6,-1.7,30.11,SSE,165,6.0,14.0,68,0.00,CLR,,0.00,WeatherDisplay:10.37,2013-03-24 01:32:00,
2013-03-23 17:47:00,7.1,-1.6,30.10,South,184,5.0,13.0,67,0.00,CLR,,0.00,WeatherDisplay:10.37,2013-03-24 01:47:00,
2013-03-23 18:02:00,7.6,-1.1,30.07,SSE,166,7.0,12.0,67,0.00,CLR,,0.00,WeatherDisplay:10.37,2013-03-24 02:02:00,
2013-03-23 18:17:00,7.7,-0.7,30.02,SSE,155,2.0,13.0,68,0.00,CLR,,0.00,WeatherDisplay:10.37,2013-03-24 02:17:00,
2013-03-23 18:32:00,7.9,-0.8,30.03,South,171,2.0,12.0,67,0.00,CLR,,0.00,WeatherDisplay:10.37,2013-03-24 02:32:00,
2013-03-23 18:47:00,7.7,-0.9,30.04,SSE,148,5.0,9.0,67,0.00,CLR,,0.00,WeatherDisplay:10.37,2013-03-24 02:47:00,
2013-03-23 19:02:00,7.8,-0.6,30.06,SE,137,3.0,8.0,68,0.00,CLR,,0.00,WeatherDisplay:10.37,2013-03-24 03:02:00,
2013-03-23 19:17:00,7.6,-0.8,30.07,SE,126,2.0,8.0,68,0.00,CLR,,0.00,WeatherDisplay:10.37,2013-03-24 03:17:00,
2013-03-23 19:32:00,7.6,-0.8,30.07,ESE,103,2.0,5.0,68,0.00,CLR,,0.00,WeatherDisplay:10.37,2013-03-24 03:32:00,
2013-03-23 19:47:00,7.5,-0.5,30.08,East,99,2.0,5.0,69,0.00,CLR,,0.00,WeatherDisplay:10.37,2013-03-24 03:47:00,
2013-03-23 20:02:00,6.3,-1.4,30.08,East,99,1.0,4.0,70,0.00,CLR,,0.00,WeatherDisplay:10.37,2013-03-24 04:02:00,
2013-03-23 20:17:00,4.5,-2.9,30.08,East,98,1.0,4.0,71,0.00,CLR,,0.00,WeatherDisplay:10.37,2013-03-24 04:17:00,
2013-03-23 20:32:00,3.1,-3.9,30.09,ENE,71,1.0,4.0,72,0.00,CLR,,0.00,WeatherDisplay:10.37,2013-03-24 04:32:00,
2013-03-23 20:47:00,1.8,-4.9,30.09,ENE,75,2.0,5.0,73,0.00,CLR,,0.00,WeatherDisplay:10.37,2013-03-24 04:47:00,
2013-03-23 21:02:00,0.8,-5.6,30.09,East,79,2.0,5.0,74,0.00,CLR,,0.00,WeatherDisplay:10.37,2013-03-24 05:02:00,
2013-03-23 21:17:00,0.3,-6.0,30.09,East,80,3.0,6.0,74,0.00,CLR,,0.00,WeatherDisplay:10.37,2013-03-24 05:17:00,
2013-03-23 21:32:00,0.2,-5.9,30.10,East,81,2.0,5.0,75,0.00,CLR,,0.00,WeatherDisplay:10.37,2013-03-24 05:32:00,
2013-03-23 21:47:00,-0.1,-6.1,30.09,East,91,2.0,5.0,75,0.00,CLR,,0.00,WeatherDisplay:10.37,2013-03-24 05:47:00,
2013-03-23 22:02:00,-0.2,-6.0,30.09,East,82,3.0,6.0,76,0.00,CLR,,0.00,WeatherDisplay:10.37,2013-03-24 06:02:00,
2013-03-23 22:17:00,-0.3,-6.1,30.09,East,86,2.0,5.0,76,0.00,CLR,,0.00,WeatherDisplay:10.37,2013-03-24 06:17:00,
2013-03-23 22:32:00,-0.3,-5.8,30.09,East,82,2.0,6.0,77,0.00,CLR,,0.00,WeatherDisplay:10.37,2013-03-24 06:32:00,
2013-03-23 22:47:00,-0.3,-5.8,30.09,East,85,3.0,6.0,77,0.00,CLR,,0.00,WeatherDisplay:10.37,2013-03-24 06:47:00,
2013-03-23 23:02:00,-0.2,-6.0,30.10,East,87,3.0,6.0,76,0.00,CLR,,0.00,WeatherDisplay:10.37,2013-03-24 07:02:00,
2013-03-23 23:17:00,-0.2,-5.7,30.09,East,81,3.0,5.0,77,0.00,CLR,,0.00,WeatherDisplay:10.37,2013-03-24 07:17:00,
2013-03-23 23:32:00,-0.3,-5.8,30.09,East,80,2.0,6.0,77,0.00,CLR,,0.00,WeatherDisplay:10.37,2013-03-24 07:32:00,
2013-03-23 23:47:00,-0.5,-6.0,30.09,East,84,2.0,5.0,77,0.00,CLR,,0.00,WeatherDisplay:10.37,2013-03-24 07:47:00,